Location: North Runcton
(52.7000°N, 0.4333°E)
Time: 20:27:53
(UTC+00:00)

USA-17 - Pass Details

Date: 19 May 2025
Orbit: 394 x 1603 km, 63.3° (Epoch: 21 June)

Event Time Altitude Azimuth Distance (km) Brightness Sun altitude
Rises 23:38:21 0° 313° (NW) 2,342 8.8 -17.2°
Reaches altitude 10° 23:40:23 10° 314° (NW) 1,450 7.6 -17.2°
Maximum altitude 23:43:29 87° 43° (NE) 409 4.1 -17.3°
Enters shadow 23:44:22 44° 130° (SE) 575 4.6 -17.3°
